Time,TemperatureF,DewpointF,PressureIn,WindDirection,WindDirectionDegrees,WindSpeedMPH,WindSpeedGustMPH,Humidity,HourlyPrecipIn,Conditions,Clouds,dailyrainin,SolarRadiationWatts/m^2,SoftwareType,DateUTC
2013-03-06 00:00:00,39.0,34.9,29.94,SE,138,1.0,2.0,85,0.00,,,0.00,0,Wunderground v.1.15,2013-03-06 05:00:00,
2013-03-06 00:01:00,39.0,34.9,29.94,SE,128,0.0,2.0,85,0.00,,,0.00,0,Wunderground v.1.15,2013-03-06 05:01:00,
2013-03-06 00:02:00,39.1,35.0,29.94,SE,135,0.0,2.0,85,0.00,,,0.00,0,Wunderground v.1.15,2013-03-06 05:02:00,
2013-03-06 00:04:00,39.1,35.0,29.94,SE,137,3.0,3.0,85,0.00,,,0.00,0,Wunderground v.1.15,2013-03-06 05:04:00,
2013-03-06 00:09:00,39.3,35.2,29.94,SE,137,0.0,3.0,85,0.00,,,0.00,0,Wunderground v.1.15,2013-03-06 05:09:00,
2013-03-06 00:14:00,39.4,35.0,29.94,SE,144,0.0,2.0,84,0.00,,,0.00,0,Wunderground v.1.15,2013-03-06 05:14:00,
2013-03-06 00:19:00,39.5,35.1,29.93,SSE,167,8.0,8.0,84,0.00,,,0.00,0,Wunderground v.1.15,2013-03-06 05:19:00,
2013-03-06 00:24:00,39.6,34.9,29.93,SE,142,4.0,4.0,83,0.00,,,0.00,0,Wunderground v.1.15,2013-03-06 05:24:00,
2013-03-06 00:30:00,39.7,35.0,29.94,SSE,148,0.0,2.0,83,0.00,,,0.00,0,Wunderground v.1.15,2013-03-06 05:30:00,
2013-03-06 00:36:00,39.8,35.1,29.94,SSE,162,0.0,3.0,83,0.00,,,0.00,0,Wunderground v.1.15,2013-03-06 05:36:00,
2013-03-06 00:42:00,39.8,34.8,29.93,SSE,165,0.0,1.0,82,0.00,,,0.00,0,Wunderground v.1.15,2013-03-06 05:42:00,
2013-03-06 00:47:00,39.8,34.8,29.93,SSE,150,0.0,8.0,82,0.00,,,0.00,0,Wunderground v.1.15,2013-03-06 05:47:00,
2013-03-06 00:52:00,39.9,34.9,29.92,SE,130,0.0,3.0,82,0.00,,,0.00,0,Wunderground v.1.15,2013-03-06 05:52:00,
2013-03-06 00:58:00,39.9,34.9,29.92,SE,140,1.0,4.0,82,0.00,,,0.00,0,Wunderground v.1.15,2013-03-06 05:58:00,
2013-03-06 01:03:00,39.9,34.9,29.92,SE,128,2.0,2.0,82,0.00,,,0.00,0,Wunderground v.1.15,2013-03-06 06:03:00,
2013-03-06 01:09:00,40.0,34.9,29.92,ESE,123,4.0,5.0,82,0.00,,,0.00,0,Wunderground v.1.15,2013-03-06 06:09:00,
2013-03-06 01:15:00,40.0,34.9,29.92,SE,128,5.0,6.0,82,0.00,,,0.00,0,Wunderground v.1.15,2013-03-06 06:15:00,
2013-03-06 01:20:00,40.0,34.9,29.92,SE,142,0.0,1.0,82,0.00,,,0.00,0,Wunderground v.1.15,2013-03-06 06:20:00,
2013-03-06 01:25:00,40.0,34.9,29.92,SE,136,2.0,4.0,82,0.00,,,0.00,0,Wunderground v.1.15,2013-03-06 06:25:00,
2013-03-06 01:31:00,40.1,35.4,29.91,SE,129,0.0,1.0,83,0.00,,,0.00,0,Wunderground v.1.15,2013-03-06 06:31:00,
2013-03-06 01:37:00,40.2,35.4,29.91,ESE,123,0.0,3.0,83,0.00,,,0.00,0,Wunderground v.1.15,2013-03-06 06:37:00,
2013-03-06 01:43:00,40.3,35.5,29.91,SE,136,4.0,4.0,83,0.00,,,0.00,0,Wunderground v.1.15,2013-03-06 06:43:00,
2013-03-06 01:48:00,40.3,35.5,29.90,SE,128,4.0,4.0,83,0.00,,,0.00,0,Wunderground v.1.15,2013-03-06 06:48:00,
2013-03-06 01:54:00,40.4,35.3,29.90,SSE,147,0.0,9.0,82,0.00,,,0.00,0,Wunderground v.1.15,2013-03-06 06:54:00,
2013-03-06 02:00:00,40.6,35.5,29.89,ESE,104,2.0,2.0,82,0.00,,,0.00,0,Wunderground v.1.15,2013-03-06 07:00:00,
2013-03-06 02:05:00,40.6,35.5,29.89,East,94,2.0,8.0,82,0.00,,,0.00,0,Wunderground v.1.15,2013-03-06 07:05:00,
2013-03-06 02:10:00,40.6,35.5,29.89,ESE,111,2.0,2.0,82,0.00,,,0.00,0,Wunderground v.1.15,2013-03-06 07:10:00,
2013-03-06 02:15:00,40.7,35.6,29.88,ESE,116,1.0,5.0,82,0.00,,,0.00,0,Wunderground v.1.15,2013-03-06 07:15:00,
2013-03-06 02:20:00,40.7,35.3,29.88,ESE,113,3.0,7.0,81,0.00,,,0.00,0,Wunderground v.1.15,2013-03-06 07:20:00,
2013-03-06 02:25:00,40.7,35.3,29.88,East,101,3.0,8.0,81,0.00,,,0.00,0,Wunderground v.1.15,2013-03-06 07:25:00,
2013-03-06 02:30:00,40.8,35.4,29.88,ESE,123,0.0,4.0,81,0.00,,,0.00,0,Wunderground v.1.15,2013-03-06 07:30:00,
2013-03-06 02:35:00,40.8,35.4,29.87,ESE,114,3.0,7.0,81,0.00,,,0.00,0,Wunderground v.1.15,2013-03-06 07:35:00,
2013-03-06 02:40:00,40.7,35.3,29.87,ESE,123,1.0,6.0,81,0.00,,,0.00,0,Wunderground v.1.15,2013-03-06 07:40:00,
2013-03-06 02:45:00,40.7,35.3,29.86,East,98,2.0,8.0,81,0.00,,,0.00,0,Wunderground v.1.15,2013-03-06 07:45:00,
2013-03-06 02:51:00,40.7,35.3,29.86,SE,130,5.0,6.0,81,0.00,,,0.00,0,Wunderground v.1.15,2013-03-06 07:51:00,
2013-03-06 02:56:00,40.7,35.3,29.86,East,86,6.0,15.0,81,0.00,,,0.00,0,Wunderground v.1.15,2013-03-06 07:56:00,
2013-03-06 03:01:00,40.7,35.3,29.86,East,90,3.0,7.0,81,0.00,,,0.00,0,Wunderground v.1.15,2013-03-06 08:01:00,
2013-03-06 03:06:00,40.7,35.3,29.85,ESE,107,3.0,13.0,81,0.00,,,0.00,0,Wunderground v.1.15,2013-03-06 08:06:00,
2013-03-06 03:11:00,40.6,35.2,29.85,East,90,8.0,13.0,81,0.00,,,0.00,0,Wunderground v.1.15,2013-03-06 08:11:00,
2013-03-06 03:16:00,40.5,34.8,29.85,East,90,3.0,18.0,80,0.00,,,0.00,0,Wunderground v.1.15,2013-03-06 08:16:00,
2013-03-06 03:21:00,40.5,35.1,29.85,ESE,109,0.0,14.0,81,0.00,,,0.00,0,Wunderground v.1.15,2013-03-06 08:21:00,
2013-03-06 03:26:00,40.5,35.1,29.85,ESE,105,13.0,18.0,81,0.00,,,0.00,0,Wunderground v.1.15,2013-03-06 08:26:00,
2013-03-06 03:31:00,40.4,35.0,29.84,East,86,14.0,14.0,81,0.00,,,0.00,0,Wunderground v.1.15,2013-03-06 08:31:00,
2013-03-06 03:36:00,40.4,35.0,29.84,East,89,5.0,21.0,81,0.00,,,0.00,0,Wunderground v.1.15,2013-03-06 08:36:00,
2013-03-06 03:41:00,40.3,34.9,29.84,East,80,6.0,10.0,81,0.00,,,0.00,0,Wunderground v.1.15,2013-03-06 08:41:00,
2013-03-06 03:46:00,40.3,35.2,29.84,East,82,13.0,14.0,82,0.00,,,0.00,0,Wunderground v.1.15,2013-03-06 08:46:00,
2013-03-06 03:51:00,40.3,35.2,29.84,NE,42,6.0,13.0,82,0.00,,,0.00,0,Wunderground v.1.15,2013-03-06 08:51:00,
2013-03-06 03:56:00,40.2,35.1,29.84,East,96,10.0,13.0,82,0.00,,,0.00,0,Wunderground v.1.15,2013-03-06 08:56:00,
2013-03-06 04:01:00,40.2,35.1,29.84,ENE,73,4.0,9.0,82,0.00,,,0.00,0,Wunderground v.1.15,2013-03-06 09:01:00,
2013-03-06 04:06:00,40.3,35.2,29.84,ENE,73,7.0,11.0,82,0.00,,,0.00,0,Wunderground v.1.15,2013-03-06 09:06:00,
2013-03-06 04:11:00,40.2,35.1,29.84,SSE,148,6.0,9.0,82,0.00,,,0.00,0,Wunderground v.1.15,2013-03-06 09:11:00,
2013-03-06 04:16:00,40.2,35.1,29.84,East,88,2.0,12.0,82,0.00,,,0.00,0,Wunderground v.1.15,2013-03-06 09:16:00,
2013-03-06 04:21:00,40.1,35.0,29.85,SSE,157,6.0,11.0,82,0.00,,,0.00,0,Wunderground v.1.15,2013-03-06 09:21:00,
2013-03-06 04:26:00,40.2,35.1,29.84,ESE,105,7.0,15.0,82,0.00,,,0.00,0,Wunderground v.1.15,2013-03-06 09:26:00,
2013-03-06 04:31:00,40.2,34.8,29.85,ESE,115,4.0,15.0,81,0.00,,,0.00,0,Wunderground v.1.15,2013-03-06 09:31:00,
2013-03-06 04:37:00,40.3,35.2,29.85,ESE,108,5.0,15.0,82,0.00,,,0.00,0,Wunderground v.1.15,2013-03-06 09:37:00,
2013-03-06 04:42:00,40.3,35.2,29.85,East,101,3.0,10.0,82,0.00,,,0.00,0,Wunderground v.1.15,2013-03-06 09:42:00,
2013-03-06 04:47:00,40.4,35.3,29.85,ESE,114,3.0,18.0,82,0.00,,,0.00,0,Wunderground v.1.15,2013-03-06 09:47:00,
2013-03-06 04:52:00,40.4,35.3,29.84,ESE,109,0.0,9.0,82,0.00,,,0.00,0,Wunderground v.1.15,2013-03-06 09:52:00,
2013-03-06 04:57:00,40.4,35.3,29.84,ENE,68,4.0,15.0,82,0.00,,,0.00,0,Wunderground v.1.15,2013-03-06 09:57:00,
2013-03-06 05:02:00,40.4,35.3,29.84,ENE,76,9.0,9.0,82,0.00,,,0.00,0,Wunderground v.1.15,2013-03-06 10:02:00,
2013-03-06 05:07:00,40.5,35.4,29.84,ESE,109,0.0,15.0,82,0.00,,,0.00,0,Wunderground v.1.15,2013-03-06 10:07:00,
2013-03-06 05:12:00,40.5,35.4,29.83,ENE,76,5.0,8.0,82,0.00,,,0.00,0,Wunderground v.1.15,2013-03-06 10:12:00,
2013-03-06 05:17:00,40.5,35.4,29.84,East,92,5.0,22.0,82,0.00,,,0.00,0,Wunderground v.1.15,2013-03-06 10:17:00,
2013-03-06 05:22:00,40.5,35.4,29.84,ESE,109,2.0,14.0,82,0.00,,,0.00,0,Wunderground v.1.15,2013-03-06 10:22:00,
2013-03-06 05:27:00,40.6,35.5,29.83,ESE,111,3.0,14.0,82,0.00,,,0.00,0,Wunderground v.1.15,2013-03-06 10:27:00,
2013-03-06 05:32:00,40.6,35.5,29.83,ESE,109,2.0,15.0,82,0.00,,,0.00,0,Wunderground v.1.15,2013-03-06 10:32:00,
2013-03-06 05:37:00,40.6,35.5,29.83,SE,141,7.0,15.0,82,0.00,,,0.00,0,Wunderground v.1.15,2013-03-06 10:37:00,
2013-03-06 05:42:00,40.7,35.6,29.83,ESE,111,3.0,11.0,82,0.00,,,0.00,0,Wunderground v.1.15,2013-03-06 10:42:00,
2013-03-06 05:47:00,40.7,35.9,29.83,SE,134,1.0,14.0,83,0.00,,,0.00,0,Wunderground v.1.15,2013-03-06 10:47:00,
2013-03-06 05:52:00,40.6,35.8,29.83,SSE,159,4.0,11.0,83,0.00,,,0.00,0,Wunderground v.1.15,2013-03-06 10:52:00,
2013-03-06 05:58:00,40.4,35.9,29.82,SE,126,6.0,14.0,84,0.00,,,0.00,0,Wunderground v.1.15,2013-03-06 10:58:00,
2013-03-06 06:03:00,40.4,35.9,29.82,NE,54,7.0,16.0,84,0.00,,,0.00,0,Wunderground v.1.15,2013-03-06 11:03:00,
2013-03-06 06:08:00,40.4,36.2,29.81,ESE,111,7.0,17.0,85,0.00,,,0.00,0,Wunderground v.1.15,2013-03-06 11:08:00,
2013-03-06 06:13:00,40.4,36.2,29.81,East,84,1.0,17.0,85,0.00,,,0.00,0,Wunderground v.1.15,2013-03-06 11:13:00,
2013-03-06 06:18:00,40.5,36.3,29.81,East,84,3.0,17.0,85,0.00,,,0.00,0,Wunderground v.1.15,2013-03-06 11:18:00,
2013-03-06 06:23:00,40.5,36.3,29.82,ESE,115,7.0,14.0,85,0.00,,,0.00,0,Wunderground v.1.15,2013-03-06 11:23:00,
2013-03-06 06:28:00,40.4,36.2,29.81,ESE,104,9.0,16.0,85,0.00,,,0.00,0,Wunderground v.1.15,2013-03-06 11:28:00,
2013-03-06 06:33:00,40.4,36.2,29.80,East,95,7.0,18.0,85,0.00,,,0.00,0,Wunderground v.1.15,2013-03-06 11:33:00,
2013-03-06 06:38:00,40.4,36.2,29.81,ESE,111,10.0,18.0,85,0.00,,,0.00,0,Wunderground v.1.15,2013-03-06 11:38:00,
2013-03-06 06:43:00,40.5,36.0,29.81,East,82,5.0,18.0,84,0.00,,,0.00,7,Wunderground v.1.15,2013-03-06 11:43:00,
2013-03-06 06:48:00,40.5,36.0,29.80,SE,128,5.0,18.0,84,0.00,,,0.00,7,Wunderground v.1.15,2013-03-06 11:48:00,
2013-03-06 06:53:00,40.7,35.9,29.80,East,80,11.0,17.0,83,0.00,,,0.00,7,Wunderground v.1.15,2013-03-06 11:53:00,
2013-03-06 06:58:00,40.7,35.9,29.80,East,96,11.0,27.0,83,0.00,,,0.00,12,Wunderground v.1.15,2013-03-06 11:58:00,
2013-03-06 07:03:00,40.7,35.9,29.81,East,88,6.0,24.0,83,0.00,,,0.00,16,Wunderground v.1.15,2013-03-06 12:03:00,
2013-03-06 07:08:00,40.7,36.2,29.80,East,84,18.0,24.0,84,0.00,,,0.00,25,Wunderground v.1.15,2013-03-06 12:08:00,
2013-03-06 07:13:00,40.7,36.2,29.81,ENE,71,4.0,27.0,84,0.00,,,0.00,12,Wunderground v.1.15,2013-03-06 12:13:00,
2013-03-06 07:18:00,40.8,36.3,29.81,East,96,9.0,27.0,84,0.00,,,0.00,16,Wunderground v.1.15,2013-03-06 12:18:00,
2013-03-06 07:23:00,40.7,36.2,29.82,East,82,14.0,15.0,84,0.00,,,0.00,12,Wunderground v.1.15,2013-03-06 12:23:00,
2013-03-06 07:28:00,40.7,36.2,29.82,SE,129,6.0,22.0,84,0.00,,,0.00,16,Wunderground v.1.15,2013-03-06 12:28:00,
2013-03-06 07:33:00,40.7,36.2,29.81,NE,44,4.0,18.0,84,0.00,,,0.00,14,Wunderground v.1.15,2013-03-06 12:33:00,
2013-03-06 07:38:00,40.8,36.3,29.82,East,84,9.0,18.0,84,0.00,,,0.00,21,Wunderground v.1.15,2013-03-06 12:38:00,
2013-03-06 07:43:00,40.9,36.4,29.82,ESE,111,11.0,22.0,84,0.00,,,0.00,30,Wunderground v.1.15,2013-03-06 12:43:00,
2013-03-06 07:48:00,40.9,36.4,29.82,East,96,14.0,22.0,84,0.00,,,0.00,32,Wunderground v.1.15,2013-03-06 12:48:00,
2013-03-06 07:53:00,40.9,36.1,29.81,ESE,103,5.0,24.0,83,0.00,,,0.00,42,Wunderground v.1.15,2013-03-06 12:53:00,
2013-03-06 07:58:00,40.9,36.1,29.81,East,84,5.0,24.0,83,0.00,,,0.00,51,Wunderground v.1.15,2013-03-06 12:58:00,
2013-03-06 08:04:00,40.9,36.1,29.81,ENE,77,9.0,17.0,83,0.00,,,0.00,39,Wunderground v.1.15,2013-03-06 13:04:00,
2013-03-06 08:09:00,41.0,36.2,29.81,East,86,6.0,17.0,83,0.00,,,0.00,37,Wunderground v.1.15,2013-03-06 13:09:00,
2013-03-06 08:13:00,41.0,36.2,29.82,East,80,17.0,19.0,83,0.00,,,0.00,56,Wunderground v.1.15,2013-03-06 13:13:00,
2013-03-06 08:18:00,41.1,36.0,29.81,ESE,109,10.0,19.0,82,0.00,,,0.00,46,Wunderground v.1.15,2013-03-06 13:18:00,
2013-03-06 08:24:00,41.1,36.3,29.81,ESE,111,12.0,17.0,83,0.00,,,0.00,72,Wunderground v.1.15,2013-03-06 13:24:00,
2013-03-06 08:29:00,41.1,36.3,29.81,East,83,5.0,18.0,83,0.00,,,0.00,42,Wunderground v.1.15,2013-03-06 13:29:00,
2013-03-06 08:34:00,41.1,36.3,29.82,ENE,69,10.0,16.0,83,0.00,,,0.00,69,Wunderground v.1.15,2013-03-06 13:34:00,
2013-03-06 08:39:00,41.0,36.2,29.81,SE,125,14.0,16.0,83,0.00,,,0.00,44,Wunderground v.1.15,2013-03-06 13:39:00,
2013-03-06 08:44:00,41.0,36.2,29.81,East,91,5.0,18.0,83,0.00,,,0.00,74,Wunderground v.1.15,2013-03-06 13:44:00,
2013-03-06 08:49:00,41.0,36.5,29.81,SE,132,5.0,21.0,84,0.00,,,0.00,86,Wunderground v.1.15,2013-03-06 13:49:00,
2013-03-06 08:54:00,40.9,36.7,29.81,East,81,7.0,26.0,85,0.00,,,0.00,67,Wunderground v.1.15,2013-03-06 13:54:00,
2013-03-06 08:59:00,40.8,36.6,29.80,ESE,117,5.0,26.0,85,0.00,,,0.00,90,Wunderground v.1.15,2013-03-06 13:59:00,
2013-03-06 09:04:00,40.7,36.8,29.80,East,101,8.0,24.0,86,0.00,,,0.00,49,Wunderground v.1.15,2013-03-06 14:04:00,
2013-03-06 09:09:00,40.7,36.8,29.80,ENE,74,17.0,26.0,86,0.00,,,0.00,86,Wunderground v.1.15,2013-03-06 14:09:00,
2013-03-06 09:14:00,40.6,36.7,29.80,East,88,7.0,19.0,86,0.00,,,0.00,74,Wunderground v.1.15,2013-03-06 14:14:00,
2013-03-06 09:19:00,40.6,37.0,29.80,East,82,19.0,23.0,87,0.00,,,0.00,33,Wunderground v.1.15,2013-03-06 14:19:00,
2013-03-06 09:24:00,40.6,36.7,29.80,ESE,115,10.0,21.0,86,0.00,,,0.00,56,Wunderground v.1.15,2013-03-06 14:24:00,
2013-03-06 09:29:00,40.6,36.7,29.80,East,84,6.0,22.0,86,0.00,,,0.00,62,Wunderground v.1.15,2013-03-06 14:29:00,
2013-03-06 09:34:00,40.6,36.7,29.80,East,98,2.0,23.0,86,0.00,,,0.00,56,Wunderground v.1.15,2013-03-06 14:34:00,
2013-03-06 09:39:00,40.7,36.8,29.80,East,101,10.0,23.0,86,0.00,,,0.00,95,Wunderground v.1.15,2013-03-06 14:39:00,
2013-03-06 09:45:00,40.8,36.9,29.80,NE,42,13.0,20.0,86,0.00,,,0.00,77,Wunderground v.1.15,2013-03-06 14:45:00,
2013-03-06 09:50:00,40.8,36.9,29.80,ENE,78,15.0,15.0,86,0.00,,,0.00,114,Wunderground v.1.15,2013-03-06 14:50:00,
2013-03-06 09:55:00,40.8,36.9,29.79,East,90,16.0,25.0,86,0.00,,,0.00,139,Wunderground v.1.15,2013-03-06 14:55:00,
2013-03-06 10:00:00,40.9,37.0,29.79,SE,138,5.0,15.0,86,0.00,,,0.00,151,Wunderground v.1.15,2013-03-06 15:00:00,
2013-03-06 10:05:00,40.9,37.0,29.79,ENE,67,9.0,18.0,86,0.00,,,0.00,123,Wunderground v.1.15,2013-03-06 15:05:00,
2013-03-06 10:10:00,40.7,37.1,29.80,ENE,73,19.0,19.0,87,0.00,,,0.00,93,Wunderground v.1.15,2013-03-06 15:10:00,
2013-03-06 10:15:00,40.5,36.9,29.79,SSE,153,7.0,19.0,87,0.00,,,0.00,88,Wunderground v.1.15,2013-03-06 15:15:00,
2013-03-06 10:21:00,40.4,36.8,29.79,ESE,118,8.0,11.0,87,0.00,,,0.01,93,Wunderground v.1.15,2013-03-06 15:21:00,
2013-03-06 10:26:00,40.4,37.1,29.79,SE,136,2.0,23.0,88,0.00,,,0.01,134,Wunderground v.1.15,2013-03-06 15:26:00,
2013-03-06 10:31:00,40.5,37.2,29.79,East,94,16.0,23.0,88,0.00,,,0.01,139,Wunderground v.1.15,2013-03-06 15:31:00,
2013-03-06 10:36:00,40.5,37.2,29.78,East,86,17.0,25.0,88,0.00,,,0.01,56,Wunderground v.1.15,2013-03-06 15:36:00,
2013-03-06 10:41:00,40.6,37.3,29.78,ESE,105,16.0,27.0,88,0.00,,,0.01,100,Wunderground v.1.15,2013-03-06 15:41:00,
2013-03-06 10:46:00,40.4,37.4,29.78,East,92,10.0,27.0,89,0.00,,,0.01,81,Wunderground v.1.15,2013-03-06 15:46:00,
2013-03-06 10:51:00,40.4,37.4,29.78,ENE,76,11.0,18.0,89,0.00,,,0.01,102,Wunderground v.1.15,2013-03-06 15:51:00,
2013-03-06 10:56:00,40.5,37.5,29.78,ENE,74,11.0,18.0,89,0.00,,,0.01,65,Wunderground v.1.15,2013-03-06 15:56:00,
2013-03-06 11:01:00,40.5,37.5,29.77,NE,48,7.0,18.0,89,0.00,,,0.01,134,Wunderground v.1.15,2013-03-06 16:01:00,
2013-03-06 11:06:00,40.6,37.6,29.77,East,80,8.0,26.0,89,0.00,,,0.01,139,Wunderground v.1.15,2013-03-06 16:06:00,
2013-03-06 11:11:00,40.7,38.0,29.77,East,82,6.0,22.0,90,0.00,,,0.01,79,Wunderground v.1.15,2013-03-06 16:11:00,
2013-03-06 11:16:00,40.7,38.0,29.76,ENE,78,8.0,24.0,90,0.00,,,0.01,113,Wunderground v.1.15,2013-03-06 16:16:00,
2013-03-06 11:21:00,40.9,38.2,29.76,SE,126,7.0,19.0,90,0.00,,,0.01,216,Wunderground v.1.15,2013-03-06 16:21:00,
2013-03-06 11:26:00,40.9,38.2,29.76,NE,51,14.0,19.0,90,0.00,,,0.01,111,Wunderground v.1.15,2013-03-06 16:26:00,
2013-03-06 11:31:00,40.9,37.9,29.76,ESE,103,7.0,28.0,89,0.00,,,0.01,174,Wunderground v.1.15,2013-03-06 16:31:00,
2013-03-06 11:36:00,40.9,38.2,29.76,ESE,107,11.0,28.0,90,0.00,,,0.01,155,Wunderground v.1.15,2013-03-06 16:36:00,
2013-03-06 11:42:00,40.9,37.9,29.76,East,97,14.0,17.0,89,0.00,,,0.01,53,Wunderground v.1.15,2013-03-06 16:42:00,
2013-03-06 11:47:00,40.8,37.8,29.76,ESE,108,23.0,26.0,89,0.00,,,0.01,84,Wunderground v.1.15,2013-03-06 16:47:00,
2013-03-06 11:52:00,40.5,37.5,29.76,East,101,13.0,24.0,89,0.00,,,0.01,70,Wunderground v.1.15,2013-03-06 16:52:00,
2013-03-06 11:57:00,40.5,37.5,29.76,ENE,67,13.0,28.0,89,0.00,,,0.01,83,Wunderground v.1.15,2013-03-06 16:57:00,
2013-03-06 12:02:00,40.5,37.8,29.76,NE,51,10.0,22.0,90,0.00,,,0.01,62,Wunderground v.1.15,2013-03-06 17:02:00,
2013-03-06 12:07:00,40.5,37.8,29.76,ENE,59,10.0,23.0,90,0.00,,,0.01,47,Wunderground v.1.15,2013-03-06 17:07:00,
2013-03-06 12:12:00,40.6,37.6,29.76,East,87,17.0,30.0,89,0.00,,,0.01,47,Wunderground v.1.15,2013-03-06 17:12:00,
2013-03-06 12:17:00,40.7,37.7,29.76,ENE,64,9.0,30.0,89,0.00,,,0.01,40,Wunderground v.1.15,2013-03-06 17:17:00,
2013-03-06 12:22:00,40.8,37.5,29.76,East,94,11.0,19.0,88,0.00,,,0.01,47,Wunderground v.1.15,2013-03-06 17:22:00,
2013-03-06 12:27:00,40.9,37.6,29.77,ENE,74,12.0,30.0,88,0.00,,,0.01,62,Wunderground v.1.15,2013-03-06 17:27:00,
2013-03-06 12:32:00,40.8,37.5,29.77,ESE,105,4.0,27.0,88,0.00,,,0.01,44,Wunderground v.1.15,2013-03-06 17:32:00,
2013-03-06 12:37:00,40.8,37.5,29.76,ENE,58,15.0,28.0,88,0.00,,,0.01,42,Wunderground v.1.15,2013-03-06 17:37:00,
2013-03-06 12:42:00,40.7,37.4,29.76,East,94,17.0,22.0,88,0.00,,,0.01,40,Wunderground v.1.15,2013-03-06 17:42:00,
2013-03-06 12:47:00,40.5,37.5,29.76,East,80,11.0,25.0,89,0.00,,,0.02,63,Wunderground v.1.15,2013-03-06 17:47:00,
2013-03-06 12:52:00,40.4,37.4,29.76,East,87,10.0,25.0,89,0.00,,,0.02,54,Wunderground v.1.15,2013-03-06 17:52:00,
2013-03-06 12:57:00,40.2,37.2,29.75,East,97,14.0,30.0,89,0.00,,,0.02,67,Wunderground v.1.15,2013-03-06 17:57:00,
2013-03-06 13:02:00,40.0,37.0,29.74,ENE,71,10.0,24.0,89,0.00,,,0.02,49,Wunderground v.1.15,2013-03-06 18:02:00,
2013-03-06 13:07:00,40.0,37.3,29.74,East,80,11.0,39.0,90,0.00,,,0.03,62,Wunderground v.1.15,2013-03-06 18:07:00,
2013-03-06 13:12:00,39.9,37.2,29.74,East,80,19.0,32.0,90,0.00,,,0.03,62,Wunderground v.1.15,2013-03-06 18:12:00,
2013-03-06 13:17:00,39.8,37.1,29.74,East,84,13.0,35.0,90,0.00,,,0.03,153,Wunderground v.1.15,2013-03-06 18:17:00,
2013-03-06 13:22:00,39.8,37.1,29.74,ENE,69,18.0,30.0,90,0.00,,,0.03,151,Wunderground v.1.15,2013-03-06 18:22:00,
2013-03-06 13:27:00,39.8,37.1,29.73,East,98,8.0,36.0,90,0.00,,,0.03,139,Wunderground v.1.15,2013-03-06 18:27:00,
2013-03-06 13:32:00,39.7,37.0,29.72,ENE,71,25.0,34.0,90,0.00,,,0.03,111,Wunderground v.1.15,2013-03-06 18:32:00,
2013-03-06 13:37:00,39.7,37.0,29.73,East,92,18.0,36.0,90,0.00,,,0.03,74,Wunderground v.1.15,2013-03-06 18:37:00,
2013-03-06 13:42:00,39.5,36.8,29.72,East,101,14.0,35.0,90,0.00,,,0.03,46,Wunderground v.1.15,2013-03-06 18:42:00,
2013-03-06 13:47:00,39.4,36.4,29.72,East,86,24.0,41.0,89,0.00,,,0.03,46,Wunderground v.1.15,2013-03-06 18:47:00,
2013-03-06 13:52:00,39.3,36.3,29.73,East,79,16.0,39.0,89,0.00,,,0.04,54,Wunderground v.1.15,2013-03-06 18:52:00,
2013-03-06 13:57:00,39.3,36.3,29.72,ENE,60,18.0,39.0,89,0.00,,,0.04,53,Wunderground v.1.15,2013-03-06 18:57:00,
2013-03-06 14:03:00,39.3,36.3,29.73,East,84,30.0,30.0,89,0.00,,,0.04,49,Wunderground v.1.15,2013-03-06 19:03:00,
2013-03-06 14:08:00,39.1,36.1,29.72,East,80,26.0,33.0,89,0.04,,,0.05,47,Wunderground v.1.15,2013-03-06 19:08:00,
2013-03-06 14:13:00,39.0,36.0,29.72,East,83,14.0,42.0,89,0.11,,,0.06,47,Wunderground v.1.15,2013-03-06 19:13:00,
2013-03-06 14:18:00,38.8,36.1,29.72,NE,39,7.0,42.0,90,0.13,,,0.07,49,Wunderground v.1.15,2013-03-06 19:18:00,
2013-03-06 14:23:00,38.8,36.1,29.72,NE,51,20.0,43.0,90,0.07,,,0.08,39,Wunderground v.1.15,2013-03-06 19:23:00,
2013-03-06 14:28:00,38.8,36.1,29.71,ENE,75,23.0,43.0,90,0.07,,,0.08,46,Wunderground v.1.15,2013-03-06 19:28:00,
2013-03-06 14:33:00,38.9,36.2,29.71,East,83,13.0,35.0,90,0.05,,,0.08,81,Wunderground v.1.15,2013-03-06 19:33:00,
2013-03-06 14:38:00,38.9,36.2,29.71,ENE,66,12.0,38.0,90,0.04,,,0.08,93,Wunderground v.1.15,2013-03-06 19:38:00,
2013-03-06 14:43:00,39.1,36.1,29.71,ENE,78,22.0,40.0,89,0.00,,,0.08,81,Wunderground v.1.15,2013-03-06 19:43:00,
2013-03-06 14:48:00,39.2,36.2,29.73,ENE,72,17.0,40.0,89,0.00,,,0.08,77,Wunderground v.1.15,2013-03-06 19:48:00,
2013-03-06 14:53:00,39.3,36.0,29.72,ENE,58,7.0,34.0,88,0.00,,,0.08,67,Wunderground v.1.15,2013-03-06 19:53:00,
2013-03-06 14:58:00,39.5,36.0,29.72,East,82,28.0,44.0,87,0.00,,,0.09,51,Wunderground v.1.15,2013-03-06 19:58:00,
2013-03-06 15:03:00,39.6,35.8,29.73,SE,130,15.0,41.0,86,0.00,,,0.09,47,Wunderground v.1.15,2013-03-06 20:03:00,
2013-03-06 15:08:00,39.7,35.9,29.73,NE,34,9.0,41.0,86,0.00,,,0.09,33,Wunderground v.1.15,2013-03-06 20:08:00,
2013-03-06 15:13:00,39.8,35.7,29.74,East,87,14.0,33.0,85,0.00,,,0.09,30,Wunderground v.1.15,2013-03-06 20:13:00,
2013-03-06 15:18:00,39.8,35.7,29.74,NE,51,12.0,34.0,85,0.00,,,0.09,25,Wunderground v.1.15,2013-03-06 20:18:00,
2013-03-06 15:24:00,39.8,35.7,29.73,NE,50,12.0,32.0,85,0.00,,,0.09,26,Wunderground v.1.15,2013-03-06 20:24:00,
2013-03-06 15:29:00,39.9,35.5,29.73,ENE,67,23.0,32.0,84,0.00,,,0.09,35,Wunderground v.1.15,2013-03-06 20:29:00,
2013-03-06 15:34:00,39.9,35.5,29.73,East,84,13.0,37.0,84,0.00,,,0.09,35,Wunderground v.1.15,2013-03-06 20:34:00,
2013-03-06 15:39:00,40.0,35.3,29.74,ENE,66,25.0,37.0,83,0.00,,,0.09,37,Wunderground v.1.15,2013-03-06 20:39:00,
2013-03-06 15:44:00,40.1,35.4,29.74,NE,47,29.0,29.0,83,0.00,,,0.09,46,Wunderground v.1.15,2013-03-06 20:44:00,
2013-03-06 15:49:00,40.3,35.2,29.73,NE,48,13.0,29.0,82,0.00,,,0.09,44,Wunderground v.1.15,2013-03-06 20:49:00,
2013-03-06 15:54:00,40.4,35.0,29.73,East,89,13.0,42.0,81,0.00,,,0.09,40,Wunderground v.1.15,2013-03-06 20:54:00,
2013-03-06 15:59:00,40.5,35.1,29.73,East,90,25.0,42.0,81,0.00,,,0.09,33,Wunderground v.1.15,2013-03-06 20:59:00,
2013-03-06 16:04:00,40.6,34.9,29.74,ENE,71,14.0,36.0,80,0.00,,,0.09,30,Wunderground v.1.15,2013-03-06 21:04:00,
2013-03-06 16:09:00,40.7,34.7,29.74,NNE,21,5.0,36.0,79,0.00,,,0.09,26,Wunderground v.1.15,2013-03-06 21:09:00,
2013-03-06 16:14:00,40.8,34.8,29.74,NE,55,15.0,26.0,79,0.00,,,0.09,26,Wunderground v.1.15,2013-03-06 21:14:00,
2013-03-06 16:19:00,40.8,35.1,29.74,NE,46,12.0,31.0,80,0.00,,,0.09,21,Wunderground v.1.15,2013-03-06 21:19:00,
2013-03-06 16:24:00,40.7,35.0,29.74,ENE,61,25.0,30.0,80,0.00,,,0.09,21,Wunderground v.1.15,2013-03-06 21:24:00,
2013-03-06 16:29:00,40.7,35.0,29.74,ENE,65,35.0,35.0,80,0.00,,,0.09,21,Wunderground v.1.15,2013-03-06 21:29:00,
2013-03-06 16:34:00,40.7,35.0,29.74,NE,46,17.0,34.0,80,0.00,,,0.09,19,Wunderground v.1.15,2013-03-06 21:34:00,
2013-03-06 16:39:00,40.7,35.0,29.74,NE,44,34.0,34.0,80,0.00,,,0.09,18,Wunderground v.1.15,2013-03-06 21:39:00,
2013-03-06 16:44:00,40.7,35.0,29.74,ENE,57,29.0,31.0,80,0.00,,,0.09,18,Wunderground v.1.15,2013-03-06 21:44:00,
2013-03-06 16:49:00,40.6,34.9,29.75,ENE,77,17.0,31.0,80,0.00,,,0.09,14,Wunderground v.1.15,2013-03-06 21:49:00,
2013-03-06 16:54:00,40.5,34.8,29.75,NE,55,6.0,38.0,80,0.00,,,0.09,16,Wunderground v.1.15,2013-03-06 21:54:00,
2013-03-06 16:59:00,40.4,35.0,29.75,NE,46,10.0,38.0,81,0.00,,,0.09,16,Wunderground v.1.15,2013-03-06 21:59:00,
2013-03-06 17:04:00,40.4,34.7,29.75,NE,48,12.0,36.0,80,0.00,,,0.09,14,Wunderground v.1.15,2013-03-06 22:04:00,
2013-03-06 17:09:00,40.4,35.0,29.75,East,94,6.0,36.0,81,0.00,,,0.09,12,Wunderground v.1.15,2013-03-06 22:09:00,
2013-03-06 17:14:00,40.5,35.1,29.75,NE,34,24.0,27.0,81,0.00,,,0.09,11,Wunderground v.1.15,2013-03-06 22:14:00,
2013-03-06 17:19:00,40.6,35.2,29.75,East,81,19.0,34.0,81,0.00,,,0.09,11,Wunderground v.1.15,2013-03-06 22:19:00,
2013-03-06 17:24:00,40.7,35.3,29.76,NE,38,9.0,22.0,81,0.00,,,0.09,11,Wunderground v.1.15,2013-03-06 22:24:00,
2013-03-06 17:29:00,40.7,35.3,29.76,NE,46,10.0,30.0,81,0.00,,,0.09,5,Wunderground v.1.15,2013-03-06 22:29:00,
2013-03-06 17:34:00,40.6,35.5,29.76,ENE,63,18.0,22.0,82,0.00,,,0.09,0,Wunderground v.1.15,2013-03-06 22:34:00,
2013-03-06 17:39:00,40.3,35.2,29.76,NE,51,11.0,27.0,82,0.00,,,0.09,0,Wunderground v.1.15,2013-03-06 22:39:00,
2013-03-06 17:44:00,40.1,35.4,29.76,NE,34,11.0,25.0,83,0.00,,,0.10,0,Wunderground v.1.15,2013-03-06 22:44:00,
2013-03-06 17:49:00,39.9,35.2,29.77,NNE,16,10.0,30.0,83,0.00,,,0.10,0,Wunderground v.1.15,2013-03-06 22:49:00,
2013-03-06 17:54:00,39.8,35.4,29.77,East,81,14.0,29.0,84,0.00,,,0.10,0,Wunderground v.1.15,2013-03-06 22:54:00,
2013-03-06 17:59:00,39.9,35.5,29.78,NE,50,8.0,32.0,84,0.00,,,0.10,0,Wunderground v.1.15,2013-03-06 22:59:00,
2013-03-06 18:04:00,40.0,35.6,29.77,ENE,59,15.0,27.0,84,0.00,,,0.10,0,Wunderground v.1.15,2013-03-06 23:04:00,
2013-03-06 18:09:00,40.0,35.3,29.77,NE,49,14.0,41.0,83,0.00,,,0.10,0,Wunderground v.1.15,2013-03-06 23:09:00,
2013-03-06 18:14:00,40.1,35.4,29.78,ENE,63,22.0,31.0,83,0.00,,,0.10,0,Wunderground v.1.15,2013-03-06 23:14:00,
2013-03-06 18:19:00,40.0,35.3,29.77,ENE,74,31.0,37.0,83,0.00,,,0.11,0,Wunderground v.1.15,2013-03-06 23:19:00,
2013-03-06 18:24:00,39.8,35.1,29.78,ENE,76,12.0,30.0,83,0.00,,,0.11,0,Wunderground v.1.15,2013-03-06 23:24:00,
2013-03-06 18:29:00,39.6,35.2,29.79,NNE,33,11.0,38.0,84,0.00,,,0.11,0,Wunderground v.1.15,2013-03-06 23:29:00,
2013-03-06 18:34:00,39.4,35.0,29.79,NE,56,14.0,33.0,84,0.04,,,0.12,0,Wunderground v.1.15,2013-03-06 23:34:00,
2013-03-06 18:39:00,39.2,35.1,29.80,NE,50,10.0,33.0,85,0.04,,,0.12,0,Wunderground v.1.15,2013-03-06 23:39:00,
2013-03-06 18:44:00,39.2,35.1,29.79,NE,42,25.0,28.0,85,0.04,,,0.12,0,Wunderground v.1.15,2013-03-06 23:44:00,
2013-03-06 18:49:00,39.1,35.0,29.80,NE,41,10.0,29.0,85,0.00,,,0.12,0,Wunderground v.1.15,2013-03-06 23:49:00,
2013-03-06 18:54:00,39.1,35.3,29.80,ENE,63,18.0,38.0,86,0.00,,,0.13,0,Wunderground v.1.15,2013-03-06 23:54:00,
2013-03-06 18:59:00,39.0,35.2,29.80,NE,49,24.0,38.0,86,0.00,,,0.13,0,Wunderground v.1.15,2013-03-06 23:59:00,
2013-03-06 19:04:00,39.0,35.2,29.80,NE,45,20.0,37.0,86,0.00,,,0.13,0,Wunderground v.1.15,2013-03-07 00:04:00,
2013-03-06 19:09:00,39.1,35.0,29.80,ENE,66,10.0,37.0,85,0.00,,,0.13,0,Wunderground v.1.15,2013-03-07 00:09:00,
2013-03-06 19:15:00,39.2,35.1,29.80,NE,56,34.0,34.0,85,0.00,,,0.13,0,Wunderground v.1.15,2013-03-07 00:15:00,
2013-03-06 19:20:00,39.3,35.2,29.80,NNE,32,16.0,18.0,85,0.00,,,0.13,0,Wunderground v.1.15,2013-03-07 00:20:00,
2013-03-06 19:25:00,39.2,35.1,29.81,East,81,9.0,29.0,85,0.00,,,0.13,0,Wunderground v.1.15,2013-03-07 00:25:00,
2013-03-06 19:30:00,39.2,35.1,29.81,NE,54,22.0,22.0,85,0.00,,,0.13,0,Wunderground v.1.15,2013-03-07 00:30:00,
2013-03-06 19:35:00,39.1,35.0,29.81,ENE,65,35.0,39.0,85,0.00,,,0.13,0,Wunderground v.1.15,2013-03-07 00:35:00,
2013-03-06 19:40:00,39.0,34.6,29.81,ENE,58,19.0,21.0,84,0.00,,,0.14,0,Wunderground v.1.15,2013-03-07 00:40:00,
2013-03-06 19:45:00,38.9,34.8,29.81,NE,55,11.0,28.0,85,0.00,,,0.14,0,Wunderground v.1.15,2013-03-07 00:45:00,
2013-03-06 19:50:00,38.7,35.7,29.81,NE,41,21.0,22.0,89,0.00,,,0.14,0,Wunderground v.1.15,2013-03-07 00:50:00,
2013-03-06 19:55:00,38.6,34.5,29.82,NE,48,13.0,35.0,85,0.04,,,0.15,0,Wunderground v.1.15,2013-03-07 00:55:00,
2013-03-06 20:00:00,38.4,34.3,29.81,NE,38,14.0,42.0,85,0.04,,,0.15,0,Wunderground v.1.15,2013-03-07 01:00:00,
2013-03-06 20:05:00,38.2,34.4,29.82,NNE,28,22.0,42.0,86,0.04,,,0.15,0,Wunderground v.1.15,2013-03-07 01:05:00,
2013-03-06 20:10:00,38.0,34.2,29.82,NE,45,12.0,25.0,86,0.05,,,0.16,0,Wunderground v.1.15,2013-03-07 01:10:00,
2013-03-06 20:15:00,38.0,34.2,29.82,NE,49,28.0,40.0,86,0.05,,,0.16,0,Wunderground v.1.15,2013-03-07 01:15:00,
2013-03-06 20:20:00,38.0,34.2,29.82,NNE,16,21.0,23.0,86,0.04,,,0.16,0,Wunderground v.1.15,2013-03-07 01:20:00,
2013-03-06 20:25:00,37.9,34.1,29.82,NE,45,12.0,35.0,86,0.04,,,0.17,0,Wunderground v.1.15,2013-03-07 01:25:00,
2013-03-06 20:31:00,37.8,34.0,29.82,NE,48,14.0,27.0,86,0.04,,,0.17,0,Wunderground v.1.15,2013-03-07 01:31:00,
2013-03-06 20:36:00,37.8,34.0,29.81,NNW,340,10.0,30.0,86,0.04,,,0.17,0,Wunderground v.1.15,2013-03-07 01:36:00,
2013-03-06 20:41:00,37.8,34.0,29.82,NE,34,16.0,27.0,86,0.00,,,0.17,0,Wunderground v.1.15,2013-03-07 01:41:00,
2013-03-06 20:46:00,37.7,33.9,29.82,NE,49,30.0,30.0,86,0.00,,,0.18,0,Wunderground v.1.15,2013-03-07 01:46:00,
2013-03-06 20:51:00,37.5,33.7,29.82,ENE,72,14.0,31.0,86,0.07,,,0.19,0,Wunderground v.1.15,2013-03-07 01:51:00,
2013-03-06 20:56:00,37.5,33.7,29.82,NE,45,18.0,32.0,86,0.07,,,0.19,0,Wunderground v.1.15,2013-03-07 01:56:00,
2013-03-06 21:01:00,37.4,33.6,29.82,NE,36,9.0,33.0,86,0.06,,,0.19,0,Wunderground v.1.15,2013-03-07 02:01:00,
2013-03-06 21:06:00,37.5,34.0,29.82,NE,49,17.0,34.0,87,0.04,,,0.20,0,Wunderground v.1.15,2013-03-07 02:06:00,
2013-03-06 21:11:00,37.6,33.8,29.83,NNE,30,17.0,25.0,86,0.04,,,0.20,0,Wunderground v.1.15,2013-03-07 02:11:00,
2013-03-06 21:16:00,37.6,33.8,29.83,NE,39,15.0,25.0,86,0.04,,,0.20,0,Wunderground v.1.15,2013-03-07 02:16:00,
2013-03-06 21:21:00,37.7,33.9,29.83,NE,54,8.0,22.0,86,0.04,,,0.20,0,Wunderground v.1.15,2013-03-07 02:21:00,
2013-03-06 21:26:00,37.6,33.8,29.83,NE,47,12.0,28.0,86,0.00,,,0.20,0,Wunderground v.1.15,2013-03-07 02:26:00,
2013-03-06 21:31:00,37.6,33.8,29.83,NE,42,11.0,30.0,86,0.00,,,0.20,0,Wunderground v.1.15,2013-03-07 02:31:00,
2013-03-06 21:36:00,37.7,33.9,29.83,NNW,344,10.0,32.0,86,0.00,,,0.20,0,Wunderground v.1.15,2013-03-07 02:36:00,
2013-03-06 21:41:00,37.8,33.7,29.83,ENE,62,13.0,25.0,85,0.00,,,0.20,0,Wunderground v.1.15,2013-03-07 02:41:00,
2013-03-06 21:46:00,37.8,33.7,29.83,NE,48,12.0,26.0,85,0.00,,,0.20,0,Wunderground v.1.15,2013-03-07 02:46:00,
2013-03-06 21:51:00,37.8,33.7,29.83,NE,35,27.0,41.0,85,0.00,,,0.20,0,Wunderground v.1.15,2013-03-07 02:51:00,
2013-03-06 21:56:00,37.9,33.5,29.83,ENE,69,18.0,41.0,84,0.00,,,0.20,0,Wunderground v.1.15,2013-03-07 02:56:00,
2013-03-06 22:01:00,38.0,33.6,29.83,NE,39,17.0,32.0,84,0.00,,,0.20,0,Wunderground v.1.15,2013-03-07 03:01:00,
2013-03-06 22:06:00,38.0,33.6,29.83,NE,35,10.0,33.0,84,0.00,,,0.20,0,Wunderground v.1.15,2013-03-07 03:06:00,
2013-03-06 22:11:00,37.8,33.4,29.83,NE,49,13.0,23.0,84,0.00,,,0.20,0,Wunderground v.1.15,2013-03-07 03:11:00,
2013-03-06 22:16:00,37.7,33.3,29.83,ENE,62,19.0,28.0,84,0.00,,,0.21,0,Wunderground v.1.15,2013-03-07 03:16:00,
2013-03-06 22:21:00,37.5,33.1,29.83,NNE,17,10.0,36.0,84,0.00,,,0.21,0,Wunderground v.1.15,2013-03-07 03:21:00,
2013-03-06 22:27:00,37.4,33.0,29.84,NE,42,32.0,36.0,84,0.00,,,0.21,0,Wunderground v.1.15,2013-03-07 03:27:00,
2013-03-06 22:32:00,37.3,33.2,29.84,NE,41,13.0,23.0,85,0.00,,,0.21,0,Wunderground v.1.15,2013-03-07 03:32:00,
2013-03-06 22:37:00,37.3,33.2,29.83,NE,49,14.0,33.0,85,0.00,,,0.21,0,Wunderground v.1.15,2013-03-07 03:37:00,
2013-03-06 22:42:00,37.4,33.3,29.83,NE,53,17.0,27.0,85,0.00,,,0.21,0,Wunderground v.1.15,2013-03-07 03:42:00,
2013-03-06 22:47:00,37.4,33.0,29.83,NE,35,11.0,29.0,84,0.00,,,0.21,0,Wunderground v.1.15,2013-03-07 03:47:00,
2013-03-06 22:52:00,37.5,33.1,29.83,NE,40,9.0,32.0,84,0.00,,,0.21,0,Wunderground v.1.15,2013-03-07 03:52:00,
2013-03-06 22:57:00,37.6,33.2,29.83,NE,49,20.0,34.0,84,0.00,,,0.21,0,Wunderground v.1.15,2013-03-07 03:57:00,
2013-03-06 23:02:00,37.7,33.3,29.83,ENE,57,29.0,29.0,84,0.00,,,0.21,0,Wunderground v.1.15,2013-03-07 04:02:00,
2013-03-06 23:07:00,37.7,33.0,29.83,East,87,28.0,30.0,83,0.00,,,0.21,0,Wunderground v.1.15,2013-03-07 04:07:00,
2013-03-06 23:12:00,37.8,33.1,29.83,NE,43,19.0,30.0,83,0.00,,,0.21,0,Wunderground v.1.15,2013-03-07 04:12:00,
2013-03-06 23:17:00,37.8,33.1,29.83,NNE,26,14.0,30.0,83,0.00,,,0.21,0,Wunderground v.1.15,2013-03-07 04:17:00,
2013-03-06 23:22:00,37.8,33.1,29.83,NE,40,11.0,19.0,83,0.00,,,0.22,0,Wunderground v.1.15,2013-03-07 04:22:00,
2013-03-06 23:27:00,37.7,33.0,29.83,ENE,59,17.0,25.0,83,0.00,,,0.22,0,Wunderground v.1.15,2013-03-07 04:27:00,
2013-03-06 23:32:00,37.6,32.9,29.84,North,355,17.0,32.0,83,0.00,,,0.22,0,Wunderground v.1.15,2013-03-07 04:32:00,
2013-03-06 23:37:00,37.5,33.1,29.84,North,360,14.0,38.0,84,0.00,,,0.22,0,Wunderground v.1.15,2013-03-07 04:37:00,
2013-03-06 23:42:00,37.5,33.1,29.84,NE,41,16.0,22.0,84,0.00,,,0.22,0,Wunderground v.1.15,2013-03-07 04:42:00,
2013-03-06 23:47:00,37.3,32.9,29.84,NNE,24,14.0,30.0,84,0.00,,,0.23,0,Wunderground v.1.15,2013-03-07 04:47:00,
2013-03-06 23:52:00,37.1,33.0,29.84,NE,51,17.0,23.0,85,0.00,,,0.23,0,Wunderground v.1.15,2013-03-07 04:52:00,
2013-03-06 23:57:00,36.9,32.8,29.84,NE,51,7.0,23.0,85,0.00,,,0.23,0,Wunderground v.1.15,2013-03-07 04:57:00,